VELOX 1

Satellite information

Favourite Embed

Satellite Type and Status

PAYLOADIN ORBIT

Key statistics

Satellite VELOX 1 at a glance.

Uptime

4026

Days in orbit

Revolutions

≈ 14.9

Per day

Orbit

SSO

Sun Synchronous Orbit

Inclination

98.3

Latest

Satellite identification and parameters

Extended collection of information and parameters for VELOX 1.

Object identification

Identified? True

Debris? False

Object name: VELOX 1

International designator: 2014-034E

Object number (NORAD): 40057

Object ID (CCSDS): 40057

Country: SINGAPORE (SING)

Current information (Y/N): Y

RCS size: MEDIUM

Orbital parameters

Period: 96.428 minutes

Inclination: 98.2904 deg

SMA: 6965.654 km

Apoapsis: 592.759 km

Periapsis: 582.279 km

RAAN: 69.9757 deg

Eccentricy: 0.0007522

Argument of periapsis: 334.1547 deg

Mean anomaly: 25.9294 deg

Mean motion: 14.93344176 rev/day

Mean motion (dot): 0.0000288 rev/day2

B* drag term: 0.00028059 1/REarth

Two-line elements (TLE)

Creation date: July 8, 2025, 2:27 a.m.

Reference frame: TEME

Reference center: EARTH

Epoch: July 7, 2025, 10:08 p.m. UTC

TLE line 0: 0 VELOX 1

TLE line 1: 1 40057U 14034E 25188.92260367 .00002880 00000-0 28059-3 0 9992

TLE line 2: 2 40057 98.2904 69.9757 0007522 334.1547 25.9294 14.93344176595143

Live tracking on map

Real-time ground track for satellite VELOX 1.

In-orbit conjunctions

There are no conjunctions computed for VELOX 1, at the moment. Check back to stay up to date, as we update our databases every day.

Go to all conjunctions

Associated space launch

VELOX 1 was lifted into orbit during the mission ‘PSLV-CA | SPOT-7, CanX-4, CanX-5, AISat, VELOX-I’, on board a PSLV space rocket.

The launch took place on June 30, 2014, 4:22 a.m. from Satish Dhawan Space Centre First Launch Pad.

For more information about the launch, click the button.

Launch to space PSLV-CA | SPOT-7, CanX-4, CanX-5, AISat, VELOX-I
PSLV-CA | SPOT-7, CanX-4, CanX-5, AISat, VELOX-I

Agency: N/A

Status: Launch Successful

Launch date: June 30, 2014, 4:22 a.m. UTC

Rocket: PSLV

Launch pad: Satish Dhawan Space Centre First Launch Pad

Location: Satish Dhawan Space Centre, India

...

Latest news about this satellite

There are no fresh news available about this satellite. Check back as we update our databases every day.


Newsletter sign-up

Weekly statistics, charts and insights to help you stay on top of the space industry.